[[{"header":{"parameterUnit":"m.s-1","parameterCategory":1,"la1":30.2991,"la2":30.254,"lo1":-89.0895,"lo2":-89.0444,"dy":0.0017,"dx":0.0017,"nx":28,"ny":28,"refTime":"2024-08-24T21:00:00:Z","depth":0,"parameterNumber":2,"parameterNumberName":"U-component_of_WINDS"},"data":[0,0,0,0,0,0,0,0,0,0,0,0,0,0,0,0,0,0,0,0,0,0,0,0,0,0,0,0,0,0,0,0,0,0,0,0,0,0,0,0,0,0,0,0,0,0,0,0,0,0,0,0,0,0,0,0,0,0,-5.0772,-5.0771,0,-5.0747,-5.0747,-5.0746,-5.0626,-5.0623,-5.0621,-5.0618,-5.0593,-5.0595,-5.0597,0,0,0,0,0,0,0,0,0,0,0,0,0,-5.0717,-5.0719,-5.0772,-5.0771,-5.0771,-5.0747,-5.0747,-5.0746,-5.0627,-5.0623,-5.062,-5.0617,-5.0593,-5.0595,-5.0597,0,0,0,0,0,0,0,0,0,0,0,0,0,-5.0722,-5.0719,-5.0772,-5.0708,-5.0703,-5.0747,-5.0747,-5.0746,-5.0628,-5.0623,-5.0619,-5.0615,-5.0592,-5.0595,-5.0598,-5.0701,0,0,-5.0607,-5.0608,0,0,0,0,0,0,0,0,-5.0722,-5.0724,-5.0718,-5.0713,-5.0706,-5.0685,-5.0718,-5.0731,-5.0629,-5.0656,-5.0618,-5.0613,-5.0627,-5.0627,-5.0632,-5.07,-5.0699,-5.0607,-5.0609,-5.061,-5.0611,0,0,0,0,0,0,0,-5.0721,-5.0724,-5.0762,-5.0718,-5.0711,-5.0682,-5.0678,-5.072,-5.0666,-5.0653,-5.0645,-5.0643,-5.0623,-5.0629,-5.0631,-5.0699,-5.0607,-5.061,-5.0612,-5.0613,-5.0853,-5.0857,0,0,0,0,0,0,-5.073,-5.0725,-5.0763,-5.0761,-5.0704,-5.0686,-5.0682,-5.0696,-5.0665,-5.0656,-5.0647,-5.0638,-5.0626,-5.0627,-5.0629,-5.0749,-5.061,-5.0613,-5.0615,-5.0848,-5.0854,-5.0859,0,0,0,0,0,0,-5.0729,-5.0734,-5.0764,-5.0741,-5.0742,-5.0692,-5.0709,-5.0698,-5.0704,-5.066,-5.065,-5.0663,-5.0623,-5.0625,-5.0685,-5.0747,-5.0614,-5.0617,-5.0843,-5.085,-5.0856,-5.099,0,0,0,0,0,0,-5.0728,-5.0735,-5.0773,-5.0742,-5.0744,-5.0819,-5.0713,-5.0701,-5.0709,-5.0697,-5.0672,-5.0664,-5.062,-5.0681,-5.0688,-5.0748,-5.0619,-5.0837,-5.0846,-5.0854,-5.098,-5.1,-5.1018,0,0,0,0,0,-5.0726,-5.0811,-5.0775,-5.0781,-5.079,-5.0823,-5.0824,-5.0771,-5.0715,-5.0753,-5.0726,-5.0665,-5.0739,-5.0688,-5.0695,-5.0757,-5.0833,-5.0844,-5.0854,-5.0971,-5.0996,-5.1018,0,0,0,0,0,0,-5.085,-5.0806,-5.0766,-5.0843,-5.0838,-5.0803,-5.0849,-5.0799,-5.0809,-5.0797,-5.0731,-5.0727,-5.0797,-5.0783,-5.0727,-5.0857,-5.0776,-5.0788,-5.0863,-5.0887,-5.0906,-5.0907,-5.0622,0,0,0,0,0,-5.0886,-5.0916,-5.0876,-5.0948,-5.0948,-5.09,-5.0912,-5.0871,-5.0863,-5.086,-5.0837,-5.0832,-5.0854,-5.0869,-5.0887,-5.0978,-5.0971,-5.1024,-5.1043,-5.1059,-5.107,-5.1118,-5.1142,-5.0893,-5.0893,-5.0892,0,0,-5.0961,-5.0941,-5.0963,-5.0972,-5.0963,-5.0997,-5.0898,-5.0937,-5.0961,-5.0866,-5.0921,-5.0904,-5.0894,-5.097,-5.1002,-5.0961,-5.1138,-5.1073,-5.1086,-5.1088,-5.1131,-5.1155,-5.1176,-5.09,-5.0898,-5.0897,0,0,-5.1114,-5.1102,-5.1161,-5.1155,-5.1143,-5.1111,-5.1125,-5.1099,-5.1084,-5.1138,-5.1068,-5.1097,-5.1136,-5.1132,-5.1135,-5.1291,-5.1236,-5.1299,-5.1399,-5.1446,-5.1466,-5.1483,-5.1539,-5.1559,-5.131,-5.131,-5.131,0,-5.1208,-5.1254,-5.1197,-5.1241,-5.1248,-5.1165,-5.1225,-5.1222,-5.1217,-5.1224,-5.1177,-5.1226,-5.1213,-5.1288,-5.1326,-5.1331,-5.1347,-5.13,-5.1468,-5.1484,-5.1499,-5.1552,-5.1573,-5.1318,-5.1317,-5.1316,-5.1315,0,-5.1372,-5.1405,-5.1455,-5.1453,-5.1465,-5.1517,-5.1468,-5.1488,-5.1448,-5.1422,-5.1479,-5.1461,-5.1475,-5.149,-5.1451,-5.156,-5.1534,-5.1479,-5.1396,-5.1532,-5.158,-5.1599,-5.1329,-5.1326,-5.1324,-5.1322,0,0,-5.1598,-5.1567,-5.1586,-5.1584,-5.1567,-5.1592,-5.1642,-5.1655,-5.1673,-5.1674,-5.1714,-5.175,-5.17,-5.1704,-5.1664,-5.1706,-5.1831,-5.1645,-5.1644,-5.168,-5.1951,-5.1992,-5.2016,-5.1795,-5.1799,-5.1802,-5.1952,0,-5.1745,-5.1826,-5.1778,-5.1867,-5.1898,-5.1821,-5.1864,-5.1859,-5.1836,-5.186,-5.1835,-5.1862,-5.1793,-5.1795,-5.1833,-5.1808,-5.1884,-5.1796,-5.1832,-5.1834,-5.1836,-5.2041,-5.2084,-5.2227,-5.197,-5.1973,-5.1976,0,-5.1925,-5.1935,-5.2027,-5.2006,-5.2017,-5.2056,-5.2066,-5.209,-5.2083,-5.2063,-5.207,-5.202,-5.2068,-5.1988,-5.2053,-5.1994,-5.2007,-5.1997,-5.2001,-5.2001,-5.1912,-5.2047,-5.2271,-5.2292,-5.2005,-5.2002,-5.2,0,-5.2082,-5.2118,-5.2178,-5.2179,-5.2156,-5.2186,-5.2177,-5.2166,-5.2178,-5.2187,-5.2195,-5.2209,-5.2217,-5.223,-5.2187,-5.2132,-5.2258,-5.2174,-5.2244,-5.2245,-5.2272,-5.2271,-5.2501,-5.2282,-5.2282,-5.2281,-5.2281,0,-5.225,-5.231,-5.2248,-5.2285,-5.235,-5.2295,-5.2361,-5.2345,-5.2336,-5.2369,-5.2305,-5.2337,-5.2278,-5.2305,-5.2271,-5.2331,-5.2335,-5.2321,-5.2311,-5.2326,-5.2328,-5.2332,-5.2321,-5.2287,-5.2286,-5.2285,-5.2284,0,-5.2435,-5.2396,-5.2457,-5.2431,-5.2426,-5.2475,-5.2452,-5.2486,-5.246,-5.2503,-5.251,-5.2469,-5.2498,-5.2456,-5.248,-5.2457,-5.254,-5.2515,-5.2542,-5.2535,-5.2607,-5.2601,-5.2847,-5.2876,-5.264,-5.2642,-5.2644,0,-5.2544,-5.2588,-5.2567,-5.2585,-5.2581,-5.261,-5.2623,-5.2571,-5.2587,-5.2584,-5.2619,-5.2642,-5.2658,-5.2707,-5.268,-5.2699,-5.2674,-5.2759,-5.2676,-5.2691,-5.2675,-5.2673,-5.2677,-5.2776,-5.2778,-5.2781,-5.2783,0,-5.2742,-5.2721,-5.2741,-5.2757,-5.2774,-5.2783,-5.2787,-5.2805,-5.2751,-5.2773,-5.2802,-5.2814,-5.284,-5.2864,-5.2876,-5.2868,-5.2817,-5.2809,-5.2826,-5.2842,-5.2855,-5.2849,-5.2588,-5.2803,-5.2801,-5.28,-5.2799,-5.2798,-5.2891,-5.2928,-5.292,-5.2945,-5.2944,-5.295,-5.2981,-5.296,-5.2983,-5.2999,-5.2968,-5.3006,-5.3,-5.3011,-5.3009,-5.3037,-5.3,-5.3025,-5.3031,-5.3038,-5.3049,-5.2852,-5.304,-5.3039,-5.3038,-5.3038,-5.3037,0,-5.3086,-5.3077,-5.3102,-5.3111,-5.3132,-5.3083,-5.3086,-5.3107,-5.314,-5.3139,-5.3157,-5.3191,-5.3215,-5.3192,-5.3211,-5.3239,-5.3216,-5.3246,-5.3243,-5.3242,-5.3081,-5.3064,-5.3264,-5.3264,-5.3264,-5.3264,-5.3264,-5.3264,-5.3189,-5.3248,-5.3228,-5.3286,-5.3277,-5.3314,-5.332,-5.3326,-5.3325,-5.3366,-5.3386,-5.3371,-5.3361,-5.338,-5.34,-5.3393,-5.3403,-5.3441,-5.3425,-5.3275,-5.3253,-5.3232,-5.3215,-5.3444,-5.3444,-5.3583,-5.3584,-5.3585]},{"header":{"parameterUnit":"m.s-1","parameterCategory":1,"la1":30.2991,"la2":30.254,"lo1":-89.0895,"lo2":-89.0444,"dy":0.0017,"dx":0.0017,"nx":28,"ny":28,"refTime":"2024-08-24T21:00:00:Z","depth":0,"parameterNumber":3,"parameterNumberName":"V-component_of_WINDS"},"data":[0,0,0,0,0,0,0,0,0,0,0,0,0,0,0,0,0,0,0,0,0,0,0,0,0,0,0,0,0,0,0,0,0,0,0,0,0,0,0,0,0,0,0,0,0,0,0,0,0,0,0,0,0,0,0,0,0,0,0.7562,0.7562,0,0.7571,0.7571,0.7571,0.7642,0.7644,0.7646,0.7648,0.765,0.7648,0.7646,0,0,0,0,0,0,0,0,0,0,0,0,0,0.7603,0.7602,0.7562,0.7562,0.7563,0.7571,0.7571,0.7571,0.7642,0.7644,0.7646,0.7648,0.765,0.7648,0.7646,0,0,0,0,0,0,0,0,0,0,0,0,0,0.7595,0.7602,0.7562,0.7599,0.7603,0.7571,0.7571,0.7571,0.7642,0.7644,0.7647,0.7649,0.7651,0.7648,0.7646,0.7577,0,0,0.7639,0.7638,0,0,0,0,0,0,0,0,0.7596,0.7594,0.7594,0.7597,0.76,0.7608,0.7586,0.7573,0.7641,0.7627,0.7648,0.7651,0.7633,0.7632,0.7628,0.7577,0.7577,0.7638,0.7637,0.7636,0.7635,0,0,0,0,0,0,0,0.7596,0.7594,0.7565,0.7594,0.7598,0.7614,0.7616,0.7584,0.7614,0.7628,0.7633,0.7634,0.7636,0.763,0.7628,0.7578,0.7639,0.7636,0.7635,0.7634,0.747,0.7468,0,0,0,0,0,0,0.7592,0.7594,0.7565,0.7566,0.7605,0.7611,0.7613,0.7603,0.7615,0.762,0.7631,0.7637,0.7633,0.7631,0.7629,0.7548,0.7636,0.7634,0.7632,0.7473,0.747,0.7466,0,0,0,0,0,0,0.7593,0.7589,0.7565,0.7581,0.758,0.7607,0.7595,0.7602,0.7596,0.7618,0.7623,0.762,0.7635,0.7632,0.759,0.7549,0.7633,0.763,0.7477,0.7472,0.7468,0.7387,0,0,0,0,0,0,0.7594,0.7589,0.7564,0.758,0.7578,0.7527,0.7593,0.76,0.7593,0.76,0.7609,0.7613,0.7637,0.7593,0.7587,0.7547,0.7628,0.748,0.7475,0.7469,0.7393,0.738,0.7369,0,0,0,0,0,0.7595,0.754,0.7563,0.7559,0.7548,0.7525,0.7523,0.7554,0.7589,0.7564,0.7578,0.7612,0.7555,0.7588,0.7582,0.7541,0.7483,0.7476,0.747,0.7398,0.7383,0.7369,0,0,0,0,0,0,0.7516,0.7542,0.7568,0.7517,0.7518,0.7537,0.7505,0.7536,0.7526,0.7533,0.757,0.7571,0.7523,0.7528,0.7564,0.7475,0.7525,0.7517,0.7473,0.7458,0.7446,0.7445,0.7626,0,0,0,0,0,0.7493,0.7473,0.7497,0.7449,0.7449,0.7477,0.7468,0.7492,0.7494,0.7494,0.7505,0.7504,0.7486,0.7472,0.7457,0.7395,0.7397,0.7364,0.7352,0.7342,0.7334,0.73,0.7285,0.7445,0.7445,0.7445,0,0,0.7444,0.7456,0.7441,0.7433,0.7437,0.7414,0.7477,0.745,0.7432,0.7489,0.745,0.7458,0.7459,0.7407,0.7384,0.7409,0.729,0.7334,0.7326,0.7323,0.7292,0.7277,0.7263,0.7441,0.7442,0.7442,0,0,0.7343,0.7351,0.7312,0.7315,0.7321,0.734,0.7331,0.7345,0.7353,0.7316,0.7357,0.7337,0.7305,0.7304,0.7299,0.72,0.723,0.7193,0.7129,0.7096,0.7084,0.7073,0.7035,0.7021,0.7186,0.7186,0.7185,0,0.728,0.7249,0.7287,0.7258,0.7252,0.7306,0.7265,0.7266,0.7265,0.726,0.7289,0.7251,0.7255,0.7203,0.7179,0.7174,0.7162,0.7191,0.7083,0.7072,0.7062,0.7027,0.7013,0.7181,0.7181,0.7182,0.7182,0,0.7171,0.7149,0.7117,0.7117,0.7109,0.7074,0.7104,0.7091,0.7116,0.7132,0.7092,0.71,0.7087,0.7077,0.71,0.7027,0.7042,0.7077,0.7128,0.7042,0.7009,0.6996,0.7174,0.7176,0.7177,0.7178,0,0,0.7018,0.7042,0.7029,0.7029,0.7041,0.7023,0.6991,0.698,0.6967,0.6965,0.6937,0.691,0.6943,0.6937,0.6961,0.6932,0.6851,0.6971,0.6971,0.6946,0.6769,0.6741,0.6725,0.6873,0.6871,0.6869,0.6768,0,0.6919,0.6866,0.6899,0.684,0.6819,0.687,0.6842,0.6844,0.6859,0.6842,0.6857,0.6836,0.6882,0.6878,0.6853,0.6866,0.6815,0.6874,0.6844,0.6843,0.684,0.6708,0.6679,0.6583,0.6756,0.6754,0.6752,0,0.6796,0.6791,0.673,0.6746,0.6739,0.6712,0.6705,0.669,0.6693,0.6706,0.67,0.6732,0.6699,0.6751,0.6705,0.6745,0.6735,0.674,0.6737,0.6733,0.679,0.6698,0.6554,0.6538,0.6733,0.6734,0.6736,0,0.6688,0.6666,0.6627,0.6626,0.6644,0.6624,0.663,0.6638,0.6629,0.6623,0.6617,0.6606,0.6599,0.6589,0.6616,0.6652,0.6566,0.6621,0.6573,0.6572,0.655,0.655,0.6399,0.6548,0.6548,0.6548,0.6548,0,0.6572,0.6532,0.6579,0.6554,0.651,0.6549,0.6505,0.6516,0.6522,0.6499,0.6543,0.652,0.6559,0.6539,0.656,0.6518,0.6515,0.6522,0.6528,0.6517,0.6515,0.6509,0.6515,0.6544,0.6545,0.6546,0.6546,0,0.6443,0.6472,0.6432,0.6454,0.6458,0.6425,0.6442,0.6419,0.6438,0.6408,0.6403,0.6431,0.641,0.6437,0.6419,0.6433,0.6375,0.6391,0.6374,0.6377,0.6327,0.6331,0.6164,0.6143,0.6307,0.6306,0.6304,0,0.6366,0.6337,0.6356,0.6345,0.6349,0.633,0.6323,0.636,0.635,0.6353,0.6329,0.6313,0.6302,0.6266,0.6283,0.6269,0.6284,0.6227,0.6282,0.6272,0.6281,0.6281,0.6277,0.6214,0.6213,0.6211,0.621,0,0.6226,0.6242,0.6231,0.6224,0.6214,0.621,0.6209,0.6197,0.6236,0.6222,0.6203,0.6194,0.6177,0.6159,0.615,0.6154,0.6187,0.6193,0.6181,0.6168,0.6158,0.616,0.634,0.6196,0.6197,0.6198,0.6199,0.6199,0.6119,0.6095,0.6105,0.609,0.6094,0.6092,0.6072,0.6089,0.6074,0.6064,0.6087,0.6061,0.6066,0.6058,0.6058,0.6038,0.6062,0.6045,0.604,0.6035,0.6026,0.6164,0.6037,0.6037,0.6038,0.6038,0.6038,0,0.5979,0.5989,0.5975,0.5973,0.5961,0.5997,0.5998,0.5985,0.5963,0.5966,0.5954,0.5932,0.5915,0.5932,0.5919,0.5899,0.5913,0.5894,0.5894,0.5894,0.6006,0.6017,0.5882,0.5882,0.5882,0.5882,0.5882,0.5882,0.5905,0.5867,0.5884,0.5848,0.5857,0.5834,0.5832,0.583,0.5832,0.5806,0.5793,0.5805,0.5813,0.58,0.5786,0.5792,0.5783,0.5758,0.5768,0.5871,0.5886,0.5901,0.5911,0.5756,0.5756,0.5657,0.5656,0.5656]}]]